Regional Weather Roundup
Issued by NWS Kansas City/Pleasant Hill, MO

Home | Current Version | Previous Version | Graphics & Text | Print | Product List | Glossary Off
Versions: 1 2 3 4 5 6 7 8 9 10 11 12 13 14 15 16 17 18 19 20 21 22 23 24 25 26 27

000
ASUS43 KEAX 281110
RWREAX

WEATHER ROUNDUP FOR EASTERN KANSAS AND NORTHWEST MISSOURI
NATIONAL WEATHER SERVICE KANSAS CITY/PLEASANT HILL MO
600 AM CDT WED JUN 28 2017

KSZ040-057-103>105-MOZ028-029-037-043-281200-
...KANSAS CITY METROPOLITAN AREA...

CITY           SKY/WX    TMP DP  RH WIND       PRES   REMARKS
K.C. INTL      CLOUDY    73  65  75 SW14G24   29.88R
K.C. DOWNTOWN  CLOUDY    74  65  73 S16G23    29.87R
LEES SUMMIT    MOCLDY    71  64  78 S16       29.91R
OLATHE - IXD   CLOUDY    71  65  81 S13       29.90R
OLATHE - OJC   CLOUDY    70  65  84 S12       29.90R
LAWRENCE       CLOUDY    74  67  78 S12G22    29.87R

$$

MOZ001>008-011>017-020>025-030>033-038>040-044>046-053-054-281200-
...NORTHERN AND CENTRAL MISSOURI...

CITY           SKY/WX    TMP DP  RH WIND       PRES   REMARKS
ST. JOSEPH     CLOUDY    73  67  81 S5        29.86F
MOSBY          CLOUDY    72  63  73 S10       29.89R
WARRENSBURG    CLOUDY    70  61  73 S9        29.92R
WHITEMAN AFB   CLOUDY    70  70 100 SW14      29.92R
CLINTON        CLOUDY    70  63  78 S9        29.94R
SEDALIA        MOCLDY    70  65  84 S12       29.95R
WARSAW         NOT AVBL
CHILLICOTHE      N/A     73  64  73 VRB6      29.92R
KIRKSVILLE     CLOUDY    71  63  75 S15G22    29.91R

$$

MOZ041-047>049-056>058-063>065-088>090-097-281200-
...EASTERN AND SOUTHERN MISSOURI...

CITY           SKY/WX    TMP DP  RH WIND       PRES   REMARKS
ST. LOUIS INTL CLOUDY    69  58  67 S9        30.02R
SPIRIT OF STL  CLOUDY    66  61  84 S5        30.00R
COLUMBIA       PTCLDY    68  63  84 S15       29.95F
JEFFERSON CITY CLOUDY    69  62  78 SE6       29.96F
ROLLA          CLOUDY    65  62  90 S10       30.00S
OSAGE BEACH    PTCLDY    66  63  90 S12       29.98S
SPRINGFIELD    PTCLDY    66  63  90 S13       29.98R
BRANSON        CLEAR     63  61  94 CALM      30.02S
JOPLIN         PTCLDY    70  64  81 S9        29.96R
WEST PLAINS    CLEAR     65  63  93 S7        30.06R

$$

IAZ060-094-KSZ022-034>040-054-083-096-NEZ052-066-093-281200-
...KANSAS...SOUTHEAST NEBRASKA AND IOWA...

CITY           SKY/WX    TMP DP  RH WIND       PRES   REMARKS
TOPEKA         CLOUDY    75  68  78 S16G29    29.83R
MANHATTAN      CLOUDY    75  67  76 S13       29.80F
EMPORIA        CLOUDY    71  67  87 S18G25    29.87R
CHANUTE          N/A    N/A N/A N/A MISG      29.92R
WICHITA        CLOUDY    73  67  81 S10       29.88R
OMAHA          CLOUDY    65  61  87 S20       29.73F
LINCOLN        CLOUDY    71  67  87 S15       29.72R
FALLS CITY     LGT RAIN  67  66  97 E8        29.82F
LAMONI         LGT RAIN  70  65  84 W15G22    29.90R
DES MOINES     LGT RAIN  70  65  84 SW15      29.80F

$$





USA.gov is the U.S. government's official web portal to all federal, state and local government web resources and services.